GPS BIIF-6 (PRN 06)

Last updated on Fri Jul 11 2025 00:03:11 GMT+0000 (Coordinated Universal Time)

1 39741U 14026A 25191.43679838 -.00000079 00000+0 00000+0 0 9998 2 39741 56.6403 344.8119 0034665 319.3722 40.3698 2.00572517 81683
UTC large
Height (km)
Speed (km/s)
/
Latitude / Longitude
Inclination (degrees)
Orbital Period (minutes)
Azimuth
Elevation
Range (km)
Doppler Factor

Next 0 passes for location: London (51.5072 / 0.1276)

Sorry there are no passes over London.